owner,sensor,date,latitude,longitude,vertical_datum,mass_concentration_of_oxygen_in_sea_water,qcFlag 
SCCF RECON,ioos:station:SCCF:12:1,2011-04-01T00:00:00Z,26.4966,-82.1479,1.94,-9999.0,1111122 
SCCF RECON,ioos:station:SCCF:12:1,2011-04-01T01:00:00Z,26.4966,-82.1479,2.08,-9999.0,1111122 
SCCF RECON,ioos:station:SCCF:12:1,2011-04-01T02:00:00Z,26.4966,-82.1479,2.234,-9999.0,1111122 
SCCF RECON,ioos:station:SCCF:12:1,2011-04-01T03:00:00Z,26.4966,-82.1479,2.312,-9999.0,1111122 
SCCF RECON,ioos:station:SCCF:12:1,2011-04-01T04:00:00Z,26.4966,-82.1479,2.35,-9999.0,1111122 
SCCF RECON,ioos:station:SCCF:12:1,2011-04-01T05:00:00Z,26.4966,-82.1479,2.35,-9999.0,1111122 
SCCF RECON,ioos:station:SCCF:12:1,2011-04-01T06:00:00Z,26.4966,-82.1479,2.26,-9999.0,1111122 
SCCF RECON,ioos:station:SCCF:12:1,2011-04-01T07:00:00Z,26.4966,-82.1479,2.17,-9999.0,1111122 
SCCF RECON,ioos:station:SCCF:12:1,2011-04-01T08:00:00Z,26.4966,-82.1479,2.08,-9999.0,1111122 
SCCF RECON,ioos:station:SCCF:12:1,2011-04-01T09:00:00Z,26.4966,-82.1479,2.011,-9999.0,1111122 
SCCF RECON,ioos:station:SCCF:12:1,2011-04-01T10:00:00Z,26.4966,-82.1479,1.952,-9999.0,1111122 
SCCF RECON,ioos:station:SCCF:12:1,2011-04-01T11:00:00Z,26.4966,-82.1479,1.915,-9999.0,1111122 
SCCF RECON,ioos:station:SCCF:12:1,2011-04-01T12:00:00Z,26.4966,-82.1479,1.921,-9999.0,1111122 
SCCF RECON,ioos:station:SCCF:12:1,2011-04-01T13:00:00Z,26.4966,-82.1479,1.993,-9999.0,1111122 
SCCF RECON,ioos:station:SCCF:12:1,2011-04-01T14:00:00Z,26.4966,-82.1479,2.126,-9999.0,1111122 
SCCF RECON,ioos:station:SCCF:12:1,2011-04-01T15:00:00Z,26.4966,-82.1479,2.241,-9999.0,1111122 
SCCF RECON,ioos:station:SCCF:12:1,2011-04-01T16:00:00Z,26.4966,-82.1479,2.279,-9999.0,1111122 
SCCF RECON,ioos:station:SCCF:12:1,2011-04-01T17:00:00Z,26.4966,-82.1479,2.279,-9999.0,1111122 
SCCF RECON,ioos:station:SCCF:12:1,2011-04-01T18:00:00Z,26.4966,-82.1479,2.201,-9999.0,1111122 
SCCF RECON,ioos:station:SCCF:12:1,2011-04-01T19:00:00Z,26.4966,-82.1479,2.11,-9999.0,1111122 
SCCF RECON,ioos:station:SCCF:12:1,2011-04-01T20:00:00Z,26.4966,-82.1479,2.009,-9999.0,1111122 
SCCF RECON,ioos:station:SCCF:12:1,2011-04-01T21:00:00Z,26.4966,-82.1479,1.929,-9999.0,1111122 
SCCF RECON,ioos:station:SCCF:12:1,2011-04-01T22:00:00Z,26.4966,-82.1479,1.853,-9999.0,1111122 
SCCF RECON,ioos:station:SCCF:12:1,2011-04-01T23:00:00Z,26.4966,-82.1479,1.776,-9999.0,1111122 
SCCF RECON,ioos:station:SCCF:12:1,2011-04-02T00:00:00Z,26.4966,-82.1479,1.73,-9999.0,1111122 
SCCF RECON,ioos:station:SCCF:12:1,2011-04-02T01:00:00Z,26.4966,-82.1479,1.78,-9999.0,1111122 
SCCF RECON,ioos:station:SCCF:12:1,2011-04-02T02:00:00Z,26.4966,-82.1479,1.91,-9999.0,1111122 
SCCF RECON,ioos:station:SCCF:12:1,2011-04-02T03:00:00Z,26.4966,-82.1479,2.042,-9999.0,1111122 
SCCF RECON,ioos:station:SCCF:12:1,2011-04-02T04:00:00Z,26.4966,-82.1479,2.17,-9999.0,1111122 
SCCF RECON,ioos:station:SCCF:12:1,2011-04-02T05:00:00Z,26.4966,-82.1479,2.24,-9999.0,1111122 
SCCF RECON,ioos:station:SCCF:12:1,2011-04-02T06:00:00Z,26.4966,-82.1479,2.247,-9999.0,1111122 
SCCF RECON,ioos:station:SCCF:12:1,2011-04-02T07:00:00Z,26.4966,-82.1479,2.169,-9999.0,1111122 
SCCF RECON,ioos:station:SCCF:12:1,2011-04-02T08:00:00Z,26.4966,-82.1479,2.052,-9999.0,1111122 
SCCF RECON,ioos:station:SCCF:12:1,2011-04-02T09:00:00Z,26.4966,-82.1479,1.95,-9999.0,1111122 
SCCF RECON,ioos:station:SCCF:12:1,2011-04-02T10:00:00Z,26.4966,-82.1479,1.89,-9999.0,1111122 
SCCF RECON,ioos:station:SCCF:12:1,2011-04-02T11:00:00Z,26.4966,-82.1479,1.85,-9999.0,1111122 
SCCF RECON,ioos:station:SCCF:12:1,2011-04-02T12:00:00Z,26.4966,-82.1479,1.851,-9999.0,1111122 
SCCF RECON,ioos:station:SCCF:12:1,2011-04-02T13:00:00Z,26.4966,-82.1479,1.92,-9999.0,1111122 
SCCF RECON,ioos:station:SCCF:12:1,2011-04-02T14:00:00Z,26.4966,-82.1479,2.062,-9999.0,1111122 
SCCF RECON,ioos:station:SCCF:12:1,2011-04-02T15:00:00Z,26.4966,-82.1479,2.191,-9999.0,1111122 
SCCF RECON,ioos:station:SCCF:12:1,2011-04-02T16:00:00Z,26.4966,-82.1479,2.269,-9999.0,1111122 
SCCF RECON,ioos:station:SCCF:12:1,2011-04-02T17:00:00Z,26.4966,-82.1479,2.299,-9999.0,1111122 
SCCF RECON,ioos:station:SCCF:12:1,2011-04-02T18:00:00Z,26.4966,-82.1479,2.273,-9999.0,1111122 
SCCF RECON,ioos:station:SCCF:12:1,2011-04-02T19:00:00Z,26.4966,-82.1479,2.195,-9999.0,1111122 
SCCF RECON,ioos:station:SCCF:12:1,2011-04-02T20:00:00Z,26.4966,-82.1479,2.083,-9999.0,1111122 
SCCF RECON,ioos:station:SCCF:12:1,2011-04-02T21:00:00Z,26.4966,-82.1479,1.964,-9999.0,1111122 
SCCF RECON,ioos:station:SCCF:12:1,2011-04-02T22:00:00Z,26.4966,-82.1479,1.866,-9999.0,1111122 
SCCF RECON,ioos:station:SCCF:12:1,2011-04-02T23:00:00Z,26.4966,-82.1479,1.783,-9999.0,1111122 
SCCF RECON,ioos:station:SCCF:12:1,2011-04-03T00:00:00Z,26.4966,-82.1479,1.73,-9999.0,1111122 
SCCF RECON,ioos:station:SCCF:12:1,2011-04-03T01:00:00Z,26.4966,-82.1479,1.733,-9999.0,1111122 
SCCF RECON,ioos:station:SCCF:12:1,2011-04-03T02:00:00Z,26.4966,-82.1479,1.827,-9999.0,1111122 
SCCF RECON,ioos:station:SCCF:12:1,2011-04-03T03:00:00Z,26.4966,-82.1479,1.98,-9999.0,1111122 
SCCF RECON,ioos:station:SCCF:12:1,2011-04-03T04:00:00Z,26.4966,-82.1479,2.125,-9999.0,1111122 
SCCF RECON,ioos:station:SCCF:12:1,2011-04-03T05:00:00Z,26.4966,-82.1479,2.225,-9999.0,1111122 
SCCF RECON,ioos:station:SCCF:12:1,2011-04-03T06:00:00Z,26.4966,-82.1479,2.27,-9999.0,1111122 
SCCF RECON,ioos:station:SCCF:12:1,2011-04-03T07:00:00Z,26.4966,-82.1479,2.22,-9999.0,1111122 
SCCF RECON,ioos:station:SCCF:12:1,2011-04-03T08:00:00Z,26.4966,-82.1479,2.13,-9999.0,1111122 
SCCF RECON,ioos:station:SCCF:12:1,2011-04-03T09:00:00Z,26.4966,-82.1479,2.031,-9999.0,1111122 
SCCF RECON,ioos:station:SCCF:12:1,2011-04-03T10:00:00Z,26.4966,-82.1479,1.956,-9999.0,1111122 
SCCF RECON,ioos:station:SCCF:12:1,2011-04-03T11:00:00Z,26.4966,-82.1479,1.903,-9999.0,1111122 
SCCF RECON,ioos:station:SCCF:12:1,2011-04-03T12:00:00Z,26.4966,-82.1479,1.854,-9999.0,1111122 
SCCF RECON,ioos:station:SCCF:12:1,2011-04-03T13:00:00Z,26.4966,-82.1479,1.844,-9999.0,1111122 
SCCF RECON,ioos:station:SCCF:12:1,2011-04-03T14:00:00Z,26.4966,-82.1479,1.91,-9999.0,1111122 
SCCF RECON,ioos:station:SCCF:12:1,2011-04-03T15:00:00Z,26.4966,-82.1479,2.026,-9999.0,1111122 
SCCF RECON,ioos:station:SCCF:12:1,2011-04-03T16:00:00Z,26.4966,-82.1479,2.132,-9999.0,1111122 
SCCF RECON,ioos:station:SCCF:12:1,2011-04-03T17:00:00Z,26.4966,-82.1479,2.209,-9999.0,1111122 
SCCF RECON,ioos:station:SCCF:12:1,2011-04-03T18:00:00Z,26.4966,-82.1479,2.236,-9999.0,1111122 
SCCF RECON,ioos:station:SCCF:12:1,2011-04-03T19:00:00Z,26.4966,-82.1479,2.183,-9999.0,1111122 
SCCF RECON,ioos:station:SCCF:12:1,2011-04-03T20:00:00Z,26.4966,-82.1479,2.069,-9999.0,1111122 
SCCF RECON,ioos:station:SCCF:12:1,2011-04-03T21:00:00Z,26.4966,-82.1479,1.935,-9999.0,1111122 
SCCF RECON,ioos:station:SCCF:12:1,2011-04-03T22:00:00Z,26.4966,-82.1479,1.829,-9999.0,1111122 
SCCF RECON,ioos:station:SCCF:12:1,2011-04-03T23:00:00Z,26.4966,-82.1479,1.74,-9999.0,1111122 
SCCF RECON,ioos:station:SCCF:12:1,2011-04-04T00:00:00Z,26.4966,-82.1479,1.671,-9999.0,1111122 
SCCF RECON,ioos:station:SCCF:12:1,2011-04-04T01:00:00Z,26.4966,-82.1479,1.67,-9999.0,1111122 
SCCF RECON,ioos:station:SCCF:12:1,2011-04-04T02:00:00Z,26.4966,-82.1479,1.756,-9999.0,1111122 
SCCF RECON,ioos:station:SCCF:12:1,2011-04-04T03:00:00Z,26.4966,-82.1479,1.9,-9999.0,1111122 
SCCF RECON,ioos:station:SCCF:12:1,2011-04-04T04:00:00Z,26.4966,-82.1479,2.04,-9999.0,1111122 
SCCF RECON,ioos:station:SCCF:12:1,2011-04-04T05:00:00Z,26.4966,-82.1479,2.16,-9999.0,1111122 
SCCF RECON,ioos:station:SCCF:12:1,2011-04-04T06:00:00Z,26.4966,-82.1479,2.24,-9999.0,1111122 
SCCF RECON,ioos:station:SCCF:12:1,2011-04-04T07:00:00Z,26.4966,-82.1479,2.263,-9999.0,1111122 
SCCF RECON,ioos:station:SCCF:12:1,2011-04-04T08:00:00Z,26.4966,-82.1479,2.21,-9999.0,1111122 
SCCF RECON,ioos:station:SCCF:12:1,2011-04-04T09:00:00Z,26.4966,-82.1479,2.12,-9999.0,1111122 
SCCF RECON,ioos:station:SCCF:12:1,2011-04-04T10:00:00Z,26.4966,-82.1479,2.039,-9999.0,1111122 
SCCF RECON,ioos:station:SCCF:12:1,2011-04-04T11:00:00Z,26.4966,-82.1479,1.98,-9999.0,1111122 
SCCF RECON,ioos:station:SCCF:12:1,2011-04-04T12:00:00Z,26.4966,-82.1479,1.95,-9999.0,1111122 
SCCF RECON,ioos:station:SCCF:12:1,2011-04-04T13:00:00Z,26.4966,-82.1479,1.981,-9999.0,1111122 
SCCF RECON,ioos:station:SCCF:12:1,2011-04-04T14:00:00Z,26.4966,-82.1479,2.077,-9999.0,1111122 
SCCF RECON,ioos:station:SCCF:12:1,2011-04-04T15:00:00Z,26.4966,-82.1479,2.192,-9999.0,1111122 
SCCF RECON,ioos:station:SCCF:12:1,2011-04-04T16:00:00Z,26.4966,-82.1479,2.282,-9999.0,1111122 
SCCF RECON,ioos:station:SCCF:12:1,2011-04-04T17:00:00Z,26.4966,-82.1479,2.349,-9999.0,1111122 
SCCF RECON,ioos:station:SCCF:12:1,2011-04-04T18:00:00Z,26.4966,-82.1479,2.373,-9999.0,1111122 
SCCF RECON,ioos:station:SCCF:12:1,2011-04-04T19:00:00Z,26.4966,-82.1479,2.333,-9999.0,1111122 
SCCF RECON,ioos:station:SCCF:12:1,2011-04-04T20:00:00Z,26.4966,-82.1479,2.266,-9999.0,1111122 
SCCF RECON,ioos:station:SCCF:12:1,2011-04-04T21:00:00Z,26.4966,-82.1479,2.157,-9999.0,1111122 
SCCF RECON,ioos:station:SCCF:12:1,2011-04-04T22:00:00Z,26.4966,-82.1479,2.018,-9999.0,1111122 
SCCF RECON,ioos:station:SCCF:12:1,2011-04-04T23:00:00Z,26.4966,-82.1479,1.895,-9999.0,1111122 
SCCF RECON,ioos:station:SCCF:12:1,2011-04-05T00:00:00Z,26.4966,-82.1479,1.792,-9999.0,1111122 
SCCF RECON,ioos:station:SCCF:12:1,2011-04-05T01:00:00Z,26.4966,-82.1479,1.723,-9999.0,1111122 
SCCF RECON,ioos:station:SCCF:12:1,2011-04-05T02:00:00Z,26.4966,-82.1479,1.74,-9999.0,1111122 
SCCF RECON,ioos:station:SCCF:12:1,2011-04-05T03:00:00Z,26.4966,-82.1479,1.861,-9999.0,1111122 
SCCF RECON,ioos:station:SCCF:12:1,2011-04-05T04:00:00Z,26.4966,-82.1479,2.01,-9999.0,1111122 
SCCF RECON,ioos:station:SCCF:12:1,2011-04-05T05:00:00Z,26.4966,-82.1479,2.132,-9999.0,1111122 
SCCF RECON,ioos:station:SCCF:12:1,2011-04-05T06:00:00Z,26.4966,-82.1479,2.23,-9999.0,1111122 
SCCF RECON,ioos:station:SCCF:12:1,2011-04-05T07:00:00Z,26.4966,-82.1479,2.29,-9999.0,1111122 
SCCF RECON,ioos:station:SCCF:12:1,2011-04-05T08:00:00Z,26.4966,-82.1479,2.29,-9999.0,1111122 
SCCF RECON,ioos:station:SCCF:12:1,2011-04-05T09:00:00Z,26.4966,-82.1479,2.238,-9999.0,1111122 
SCCF RECON,ioos:station:SCCF:12:1,2011-04-05T10:00:00Z,26.4966,-82.1479,2.152,-9999.0,1111122 
SCCF RECON,ioos:station:SCCF:12:1,2011-04-05T11:00:00Z,26.4966,-82.1479,2.081,-9999.0,1111122 
SCCF RECON,ioos:station:SCCF:12:1,2011-04-05T12:00:00Z,26.4966,-82.1479,2.05,-9999.0,1111122 
SCCF RECON,ioos:station:SCCF:12:1,2011-04-05T13:00:00Z,26.4966,-82.1479,2.067,-9999.0,1111122 
SCCF RECON,ioos:station:SCCF:12:1,2011-04-05T14:00:00Z,26.4966,-82.1479,2.154,-9999.0,1111122 
SCCF RECON,ioos:station:SCCF:12:1,2011-04-05T15:00:00Z,26.4966,-82.1479,2.26,-9999.0,1111122 
SCCF RECON,ioos:station:SCCF:12:1,2011-04-05T16:00:00Z,26.4966,-82.1479,2.434,-9999.0,1111122 
SCCF RECON,ioos:station:SCCF:12:1,2011-04-05T17:00:00Z,26.4966,-82.1479,2.37,-9999.0,1111122 
SCCF RECON,ioos:station:SCCF:12:1,2011-04-05T18:00:00Z,26.4966,-82.1479,2.36,-9999.0,1111122 
SCCF RECON,ioos:station:SCCF:12:1,2011-04-05T19:00:00Z,26.4966,-82.1479,2.381,-9999.0,1111122 
SCCF RECON,ioos:station:SCCF:12:1,2011-04-05T20:00:00Z,26.4966,-82.1479,2.3,-9999.0,1111122 
SCCF RECON,ioos:station:SCCF:12:1,2011-04-05T21:00:00Z,26.4966,-82.1479,2.184,-9999.0,1111122 
SCCF RECON,ioos:station:SCCF:12:1,2011-04-05T22:00:00Z,26.4966,-82.1479,2.083,-9999.0,1111122 
SCCF RECON,ioos:station:SCCF:12:1,2011-04-05T23:00:00Z,26.4966,-82.1479,1.98,-9999.0,1111122 
SCCF RECON,ioos:station:SCCF:12:1,2011-04-06T00:00:00Z,26.4966,-82.1479,1.894,-9999.0,1111122 
SCCF RECON,ioos:station:SCCF:12:1,2011-04-06T01:00:00Z,26.4966,-82.1479,1.819,-9999.0,1111122 
SCCF RECON,ioos:station:SCCF:12:1,2011-04-06T02:00:00Z,26.4966,-82.1479,1.737,-9999.0,1111122 
SCCF RECON,ioos:station:SCCF:12:1,2011-04-06T03:00:00Z,26.4966,-82.1479,1.712,-9999.0,1111122 
SCCF RECON,ioos:station:SCCF:12:1,2011-04-06T04:00:00Z,26.4966,-82.1479,1.781,-9999.0,1111122 
SCCF RECON,ioos:station:SCCF:12:1,2011-04-06T05:00:00Z,26.4966,-82.1479,1.87,-9999.0,1111122 
SCCF RECON,ioos:station:SCCF:12:1,2011-04-06T06:00:00Z,26.4966,-82.1479,2.007,-9999.0,1111122 
SCCF RECON,ioos:station:SCCF:12:1,2011-04-06T07:00:00Z,26.4966,-82.1479,2.102,-9999.0,1111122 
SCCF RECON,ioos:station:SCCF:12:1,2011-04-06T08:00:00Z,26.4966,-82.1479,2.15,-9999.0,1111122 
SCCF RECON,ioos:station:SCCF:12:1,2011-04-06T09:00:00Z,26.4966,-82.1479,2.138,-9999.0,1111122 
SCCF RECON,ioos:station:SCCF:12:1,2011-04-06T10:00:00Z,26.4966,-82.1479,2.082,-9999.0,1111122 
SCCF RECON,ioos:station:SCCF:12:1,2011-04-06T11:00:00Z,26.4966,-82.1479,2.004,-9999.0,1111122 
SCCF RECON,ioos:station:SCCF:12:1,2011-04-06T12:00:00Z,26.4966,-82.1479,1.936,-9999.0,1111122 
SCCF RECON,ioos:station:SCCF:12:1,2011-04-06T13:00:00Z,26.4966,-82.1479,1.913,-9999.0,1111122 
SCCF RECON,ioos:station:SCCF:12:1,2011-04-06T14:00:00Z,26.4966,-82.1479,1.963,-9999.0,1111122 
SCCF RECON,ioos:station:SCCF:12:1,2011-04-06T15:00:00Z,26.4966,-82.1479,2.062,-9999.0,1111122 
SCCF RECON,ioos:station:SCCF:12:1,2011-04-06T16:00:00Z,26.4966,-82.1479,2.17,-9999.0,1111122 
SCCF RECON,ioos:station:SCCF:12:1,2011-04-06T17:00:00Z,26.4966,-82.1479,2.273,-9999.0,1111122 
SCCF RECON,ioos:station:SCCF:12:1,2011-04-06T18:00:00Z,26.4966,-82.1479,2.347,-9999.0,1111122 
SCCF RECON,ioos:station:SCCF:12:1,2011-04-06T19:00:00Z,26.4966,-82.1479,2.37,-9999.0,1111122 
SCCF RECON,ioos:station:SCCF:12:1,2011-04-06T20:00:00Z,26.4966,-82.1479,2.342,-9999.0,1111122 
SCCF RECON,ioos:station:SCCF:12:1,2011-04-06T21:00:00Z,26.4966,-82.1479,2.253,-9999.0,1111122 
SCCF RECON,ioos:station:SCCF:12:1,2011-04-06T22:00:00Z,26.4966,-82.1479,2.14,-9999.0,1111122 
SCCF RECON,ioos:station:SCCF:12:1,2011-04-06T23:00:00Z,26.4966,-82.1479,2.02,-9999.0,1111122 
SCCF RECON,ioos:station:SCCF:12:1,2011-04-07T00:00:00Z,26.4966,-82.1479,1.91,-9999.0,1111122 
SCCF RECON,ioos:station:SCCF:12:1,2011-04-07T01:00:00Z,26.4966,-82.1479,1.811,-9999.0,1111122 
SCCF RECON,ioos:station:SCCF:12:1,2011-04-07T02:00:00Z,26.4966,-82.1479,1.74,-9999.0,1111122 
SCCF RECON,ioos:station:SCCF:12:1,2011-04-07T03:00:00Z,26.4966,-82.1479,1.698,-9999.0,1111122 
SCCF RECON,ioos:station:SCCF:12:1,2011-04-07T04:00:00Z,26.4966,-82.1479,1.753,-9999.0,1111122 
SCCF RECON,ioos:station:SCCF:12:1,2011-04-07T05:00:00Z,26.4966,-82.1479,1.885,-9999.0,1111122 
SCCF RECON,ioos:station:SCCF:12:1,2011-04-07T06:00:00Z,26.4966,-82.1479,1.997,-9999.0,1111122 
SCCF RECON,ioos:station:SCCF:12:1,2011-04-07T07:00:00Z,26.4966,-82.1479,2.07,-9999.0,1111122 
SCCF RECON,ioos:station:SCCF:12:1,2011-04-07T08:00:00Z,26.4966,-82.1479,2.127,-9999.0,1111122 
SCCF RECON,ioos:station:SCCF:12:1,2011-04-07T09:00:00Z,26.4966,-82.1479,2.14,-9999.0,1111122 
SCCF RECON,ioos:station:SCCF:12:1,2011-04-07T10:00:00Z,26.4966,-82.1479,2.11,-9999.0,1111122 
SCCF RECON,ioos:station:SCCF:12:1,2011-04-07T11:00:00Z,26.4966,-82.1479,2.07,-9999.0,1111122 
SCCF RECON,ioos:station:SCCF:12:1,2011-04-07T12:00:00Z,26.4966,-82.1479,2.04,-9999.0,1111122 
SCCF RECON,ioos:station:SCCF:12:1,2011-04-07T13:00:00Z,26.4966,-82.1479,2.051,-9999.0,1111122 
SCCF RECON,ioos:station:SCCF:12:1,2011-04-07T14:00:00Z,26.4966,-82.1479,2.094,-9999.0,1111122 
SCCF RECON,ioos:station:SCCF:12:1,2011-04-07T15:00:00Z,26.4966,-82.1479,2.173,-9999.0,1111122 
SCCF RECON,ioos:station:SCCF:12:1,2011-04-07T16:00:00Z,26.4966,-82.1479,2.282,-9999.0,1111122 
SCCF RECON,ioos:station:SCCF:12:1,2011-04-07T17:00:00Z,26.4966,-82.1479,2.383,-9999.0,1111122 
SCCF RECON,ioos:station:SCCF:12:1,2011-04-07T18:00:00Z,26.4966,-82.1479,2.44,-9999.0,1111122 
SCCF RECON,ioos:station:SCCF:12:1,2011-04-07T19:00:00Z,26.4966,-82.1479,2.449,-9999.0,1111122 
SCCF RECON,ioos:station:SCCF:12:1,2011-04-07T20:00:00Z,26.4966,-82.1479,2.416,-9999.0,1111122 
SCCF RECON,ioos:station:SCCF:12:1,2011-04-07T21:00:00Z,26.4966,-82.1479,2.352,-9999.0,1111122 
SCCF RECON,ioos:station:SCCF:12:1,2011-04-07T22:00:00Z,26.4966,-82.1479,2.26,-9999.0,1111122 
SCCF RECON,ioos:station:SCCF:12:1,2011-04-07T23:00:00Z,26.4966,-82.1479,2.15,-9999.0,1111122 
SCCF RECON,ioos:station:SCCF:12:1,2011-04-08T00:00:00Z,26.4966,-82.1479,2.04,-9999.0,1111122 
SCCF RECON,ioos:station:SCCF:12:1,2011-04-08T01:00:00Z,26.4966,-82.1479,1.93,-9999.0,1111122 
SCCF RECON,ioos:station:SCCF:12:1,2011-04-08T02:00:00Z,26.4966,-82.1479,1.84,-9999.0,1111122 
SCCF RECON,ioos:station:SCCF:12:1,2011-04-08T03:00:00Z,26.4966,-82.1479,1.78,-9999.0,1111122 
SCCF RECON,ioos:station:SCCF:12:1,2011-04-08T04:00:00Z,26.4966,-82.1479,1.77,-9999.0,1111122 
SCCF RECON,ioos:station:SCCF:12:1,2011-04-08T05:00:00Z,26.4966,-82.1479,1.88,-9999.0,1111122 
SCCF RECON,ioos:station:SCCF:12:1,2011-04-08T06:00:00Z,26.4966,-82.1479,2.0,-9999.0,1111122 
SCCF RECON,ioos:station:SCCF:12:1,2011-04-08T07:00:00Z,26.4966,-82.1479,2.1,-9999.0,1111122 
SCCF RECON,ioos:station:SCCF:12:1,2011-04-08T08:00:00Z,26.4966,-82.1479,2.16,-9999.0,1111122 
SCCF RECON,ioos:station:SCCF:12:1,2011-04-08T09:00:00Z,26.4966,-82.1479,2.2,-9999.0,1111122 
SCCF RECON,ioos:station:SCCF:12:1,2011-04-08T10:00:00Z,26.4966,-82.1479,2.2,-9999.0,1111122 
SCCF RECON,ioos:station:SCCF:12:1,2011-04-08T11:00:00Z,26.4966,-82.1479,2.17,-9999.0,1111122 
SCCF RECON,ioos:station:SCCF:12:1,2011-04-08T12:00:00Z,26.4966,-82.1479,2.14,-9999.0,1111122 
SCCF RECON,ioos:station:SCCF:12:1,2011-04-08T13:00:00Z,26.4966,-82.1479,2.131,-9999.0,1111122 
SCCF RECON,ioos:station:SCCF:12:1,2011-04-08T14:00:00Z,26.4966,-82.1479,2.131,-9999.0,1111122 
SCCF RECON,ioos:station:SCCF:12:1,2011-04-08T15:00:00Z,26.4966,-82.1479,2.149,-9999.0,1111122 
SCCF RECON,ioos:station:SCCF:12:1,2011-04-08T16:00:00Z,26.4966,-82.1479,2.197,-9999.0,1111122 
SCCF RECON,ioos:station:SCCF:12:1,2011-04-08T17:00:00Z,26.4966,-82.1479,2.269,-9999.0,1111122 
SCCF RECON,ioos:station:SCCF:12:1,2011-04-08T18:00:00Z,26.4966,-82.1479,2.337,-9999.0,1111122 
SCCF RECON,ioos:station:SCCF:12:1,2011-04-08T19:00:00Z,26.4966,-82.1479,2.391,-9999.0,1111122 
SCCF RECON,ioos:station:SCCF:12:1,2011-04-08T20:00:00Z,26.4966,-82.1479,2.41,-9999.0,1111122 
SCCF RECON,ioos:station:SCCF:12:1,2011-04-08T21:00:00Z,26.4966,-82.1479,2.37,-9999.0,1111122 
SCCF RECON,ioos:station:SCCF:12:1,2011-04-08T22:00:00Z,26.4966,-82.1479,2.3,-9999.0,1111122 
SCCF RECON,ioos:station:SCCF:12:1,2011-04-08T23:00:00Z,26.4966,-82.1479,2.2,-9999.0,1111122 
SCCF RECON,ioos:station:SCCF:12:1,2011-04-09T00:00:00Z,26.4966,-82.1479,2.09,-9999.0,1111122 
SCCF RECON,ioos:station:SCCF:12:1,2011-04-09T01:00:00Z,26.4966,-82.1479,1.997,-9999.0,1111122 
SCCF RECON,ioos:station:SCCF:12:1,2011-04-09T02:00:00Z,26.4966,-82.1479,1.89,-9999.0,1111122 
SCCF RECON,ioos:station:SCCF:12:1,2011-04-09T03:00:00Z,26.4966,-82.1479,1.81,-9999.0,1111122 
SCCF RECON,ioos:station:SCCF:12:1,2011-04-09T04:00:00Z,26.4966,-82.1479,1.76,-9999.0,1111122 
SCCF RECON,ioos:station:SCCF:12:1,2011-04-09T05:00:00Z,26.4966,-82.1479,1.78,-9999.0,1111122 
SCCF RECON,ioos:station:SCCF:12:1,2011-04-09T06:00:00Z,26.4966,-82.1479,1.89,-9999.0,1111122 
SCCF RECON,ioos:station:SCCF:12:1,2011-04-09T07:00:00Z,26.4966,-82.1479,2.0,-9999.0,1111122 
SCCF RECON,ioos:station:SCCF:12:1,2011-04-09T08:00:00Z,26.4966,-82.1479,2.09,-9999.0,1111122 
SCCF RECON,ioos:station:SCCF:12:1,2011-04-09T09:00:00Z,26.4966,-82.1479,2.16,-9999.0,1111122 
SCCF RECON,ioos:station:SCCF:12:1,2011-04-09T10:00:00Z,26.4966,-82.1479,2.21,-9999.0,1111122 
SCCF RECON,ioos:station:SCCF:12:1,2011-04-09T11:00:00Z,26.4966,-82.1479,2.225,-9999.0,1111122 
SCCF RECON,ioos:station:SCCF:12:1,2011-04-09T12:00:00Z,26.4966,-82.1479,2.221,-9999.0,1111122 
SCCF RECON,ioos:station:SCCF:12:1,2011-04-09T13:00:00Z,26.4966,-82.1479,2.206,-9999.0,1111122 
SCCF RECON,ioos:station:SCCF:12:1,2011-04-09T14:00:00Z,26.4966,-82.1479,2.201,-9999.0,1111122 
SCCF RECON,ioos:station:SCCF:12:1,2011-04-09T15:00:00Z,26.4966,-82.1479,2.213,-9999.0,1111122 
SCCF RECON,ioos:station:SCCF:12:1,2011-04-09T16:00:00Z,26.4966,-82.1479,2.255,-9999.0,1111122 
SCCF RECON,ioos:station:SCCF:12:1,2011-04-09T17:00:00Z,26.4966,-82.1479,2.313,-9999.0,1111122 
SCCF RECON,ioos:station:SCCF:12:1,2011-04-09T18:00:00Z,26.4966,-82.1479,2.378,-9999.0,1111122 
SCCF RECON,ioos:station:SCCF:12:1,2011-04-09T19:00:00Z,26.4966,-82.1479,2.426,-9999.0,1111122 
SCCF RECON,ioos:station:SCCF:12:1,2011-04-09T20:00:00Z,26.4966,-82.1479,2.449,-9999.0,1111122 
SCCF RECON,ioos:station:SCCF:12:1,2011-04-09T21:00:00Z,26.4966,-82.1479,2.439,-9999.0,1111122 
SCCF RECON,ioos:station:SCCF:12:1,2011-04-09T22:00:00Z,26.4966,-82.1479,2.388,-9999.0,1111122 
SCCF RECON,ioos:station:SCCF:12:1,2011-04-09T23:00:00Z,26.4966,-82.1479,2.321,-9999.0,1111122 
SCCF RECON,ioos:station:SCCF:12:1,2011-04-10T00:00:00Z,26.4966,-82.1479,2.229,-9999.0,1111122 
SCCF RECON,ioos:station:SCCF:12:1,2011-04-10T01:00:00Z,26.4966,-82.1479,2.125,-9999.0,1111122 
SCCF RECON,ioos:station:SCCF:12:1,2011-04-10T02:00:00Z,26.4966,-82.1479,2.023,-9999.0,1111122 
SCCF RECON,ioos:station:SCCF:12:1,2011-04-10T03:00:00Z,26.4966,-82.1479,1.917,-9999.0,1111122 
SCCF RECON,ioos:station:SCCF:12:1,2011-04-10T04:00:00Z,26.4966,-82.1479,1.825,-9999.0,1111122 
SCCF RECON,ioos:station:SCCF:12:1,2011-04-10T05:00:00Z,26.4966,-82.1479,1.768,-9999.0,1111122 
SCCF RECON,ioos:station:SCCF:12:1,2011-04-10T06:00:00Z,26.4966,-82.1479,1.769,-9999.0,1111122 
SCCF RECON,ioos:station:SCCF:12:1,2011-04-10T07:00:00Z,26.4966,-82.1479,1.85,-9999.0,1111122 
SCCF RECON,ioos:station:SCCF:12:1,2011-04-10T08:00:00Z,26.4966,-82.1479,1.96,-9999.0,1111122 
SCCF RECON,ioos:station:SCCF:12:1,2011-04-10T09:00:00Z,26.4966,-82.1479,2.05,-9999.0,1111122 
SCCF RECON,ioos:station:SCCF:12:1,2011-04-10T10:00:00Z,26.4966,-82.1479,2.123,-9999.0,1111122 
SCCF RECON,ioos:station:SCCF:12:1,2011-04-10T11:00:00Z,26.4966,-82.1479,2.17,-9999.0,1111122 
SCCF RECON,ioos:station:SCCF:12:1,2011-04-10T12:00:00Z,26.4966,-82.1479,2.201,-9999.0,1111122 
SCCF RECON,ioos:station:SCCF:12:1,2011-04-10T13:00:00Z,26.4966,-82.1479,2.211,-9999.0,1111122 
SCCF RECON,ioos:station:SCCF:12:1,2011-04-10T14:00:00Z,26.4966,-82.1479,2.213,-9999.0,1111122 
SCCF RECON,ioos:station:SCCF:12:1,2011-04-10T15:00:00Z,26.4966,-82.1479,2.22,-9999.0,1111122 
SCCF RECON,ioos:station:SCCF:12:1,2011-04-10T16:00:00Z,26.4966,-82.1479,2.24,-9999.0,1111122 
SCCF RECON,ioos:station:SCCF:12:1,2011-04-10T17:00:00Z,26.4966,-82.1479,2.261,-9999.0,1111122 
SCCF RECON,ioos:station:SCCF:12:1,2011-04-10T18:00:00Z,26.4966,-82.1479,2.294,-9999.0,1111122 
SCCF RECON,ioos:station:SCCF:12:1,2011-04-10T19:00:00Z,26.4966,-82.1479,2.341,-9999.0,1111122 
SCCF RECON,ioos:station:SCCF:12:1,2011-04-10T20:00:00Z,26.4966,-82.1479,2.391,-9999.0,1111122 
SCCF RECON,ioos:station:SCCF:12:1,2011-04-10T21:00:00Z,26.4966,-82.1479,2.431,-9999.0,1111122 
SCCF RECON,ioos:station:SCCF:12:1,2011-04-10T22:00:00Z,26.4966,-82.1479,2.43,-9999.0,1111122 
SCCF RECON,ioos:station:SCCF:12:1,2011-04-10T23:00:00Z,26.4966,-82.1479,2.392,-9999.0,1111122 
SCCF RECON,ioos:station:SCCF:12:1,2011-04-11T00:00:00Z,26.4966,-82.1479,2.33,-9999.0,1111122 
SCCF RECON,ioos:station:SCCF:12:1,2011-04-11T01:00:00Z,26.4966,-82.1479,2.25,-9999.0,1111122 
SCCF RECON,ioos:station:SCCF:12:1,2011-04-11T02:00:00Z,26.4966,-82.1479,2.15,-9999.0,1111122 
SCCF RECON,ioos:station:SCCF:12:1,2011-04-11T03:00:00Z,26.4966,-82.1479,2.049,-9999.0,1111122 
SCCF RECON,ioos:station:SCCF:12:1,2011-04-11T04:00:00Z,26.4966,-82.1479,1.94,-9999.0,1111122 
SCCF RECON,ioos:station:SCCF:12:1,2011-04-11T05:00:00Z,26.4966,-82.1479,1.847,-9999.0,1111122 
SCCF RECON,ioos:station:SCCF:12:1,2011-04-11T06:00:00Z,26.4966,-82.1479,1.78,-9999.0,1111122 
SCCF RECON,ioos:station:SCCF:12:1,2011-04-11T07:00:00Z,26.4966,-82.1479,1.77,-9999.0,1111122 
SCCF RECON,ioos:station:SCCF:12:1,2011-04-11T08:00:00Z,26.4966,-82.1479,1.849,-9999.0,1111122 
SCCF RECON,ioos:station:SCCF:12:1,2011-04-11T09:00:00Z,26.4966,-82.1479,1.96,-9999.0,1111122 
SCCF RECON,ioos:station:SCCF:12:1,2011-04-11T10:00:00Z,26.4966,-82.1479,2.05,-9999.0,1111122 
SCCF RECON,ioos:station:SCCF:12:1,2011-04-11T11:00:00Z,26.4966,-82.1479,2.13,-9999.0,1111122 